Wind_Speed
3 3 3 3 3 3 3 2 2 2 1 1 1 1 0 0 0 0 0 0 0 1 1 1 2 2 3 3 4 4 4 4 5 5 5 5 5 5 5 6 6 6 7
3 3 2 2 3 3 3 2 2 2 1 1 1 1 1 1 0 1 1 2 2 3 3 3 3 4 4 5 5 5 5 6 6 6 6 6 7 7 7 7 8 8 8
2 2 2 1 2 3 3 2 2 2 1 1 2 2 2 1 1 2 3 3 4 4 4 4 5 5 5 5 6 6 7 7 8 8 8 8 8 8 8 9 9 9 10
2 1 1 2 2 3 3 3 2 2 2 2 2 2 3 3 3 4 4 5 5 5 5 5 6 6 7 7 7 8 9 9 10 10 10 9 9 10 10 11 11 11 11
1 0 1 1 2 2 3 3 3 3 3 3 3 4 4 4 5 5 5 6 6 7 7 7 7 8 8 9 9 10 11 11 11 12 12 11 11 11 12 13 13 13 13
2 1 0 1 1 2 3 3 3 3 4 4 4 4 5 6 6 7 7 8 8 8 8 9 9 10 10 10 11 12 13 13 13 14 14 14 14 14 14 15 15 15 15
2 2 1 1 2 2 2 3 4 4 5 5 5 5 6 7 7 8 8 9 9 9 10 10 11 11 11 12 12 12 13 14 15 15 15 16 16 16 17 17 17 17 16
4 3 2 2 2 2 3 3 4 5 5 5 6 6 7 7 7 8 9 9 9 11 11 12 12 12 13 13 14 14 15 15 15 15 16 17 17 17 18 19 19 18 18
5 4 3 3 3 3 4 4 5 5 6 6 6 7 7 8 8 8 9 9 10 11 12 12 12 13 15 15 15 16 16 16 15 16 17 17 18 19 20 20 20 21 20
6 5 5 5 4 5 5 5 5 5 6 7 7 8 8 8 9 9 9 10 10 11 12 12 13 14 16 16 17 18 17 17 17 18 18 18 19 20 20 20 20 21 21
7 6 5 5 6 6 6 6 6 6 7 8 9 9 9 10 10 10 11 11 11 12 13 13 14 16 16 17 17 18 18 18 19 19 19 19 20 20 20 21 21 22 22
9 7 7 6 6 7 7 7 8 8 9 9 10 11 11 11 11 11 12 12 12 13 14 14 15 15 16 17 17 17 18 19 20 20 19 20 20 21 22 22 23 23 23
10 9 8 8 8 8 7 7 8 9 9 9 10 10 11 12 12 12 13 13 14 14 15 15 15 16 17 18 18 19 20 21 21 21 21 22 22 22 23 23 23 24 25
10 10 9 9 8 8 8 8 9 10 9 9 10 10 11 11 12 13 14 14 14 15 16 16 17 18 18 19 19 20 20 21 21 22 22 23 23 24 25 25 25 25 26
12 11 11 10 10 9 10 10 10 11 11 11 11 11 12 12 13 14 14 15 15 15 16 17 18 18 18 19 19 20 20 21 22 21 22 23 24 24 24 25 26 26 27
13 12 12 12 11 10 11 11 11 11 11 11 12 12 12 13 14 15 15 16 16 17 17 18 18 19 19 20 20 21 21 22 22 22 23 23 24 24 25 25 25 26 27
14 14 13 12 12 11 11 11 12 12 12 13 13 13 14 14 15 16 16 17 17 18 18 19 19 19 19 20 20 21 22 22 22 23 24 24 23 24 24 25 26 26 27
16 15 14 14 13 12 12 13 13 13 13 13 14 14 15 15 16 17 17 18 18 18 19 19 20 20 20 20 21 22 22 22 23 24 24 25 25 25 25 26 27 27 27
17 16 15 14 13 13 13 14 14 14 14 14 14 15 15 16 16 17 17 17 18 19 19 20 20 21 21 22 22 23 23 23 24 24 25 25 26 26 26 27 27 28 28
18 17 15 14 14 14 14 15 15 15 15 15 15 16 16 16 16 17 17 18 19 19 20 20 21 21 22 22 23 24 24 25 26 26 26 27 27 28 28 28 29 29 29
19 17 16 15 15 15 15 15 16 16 16 16 16 16 16 17 17 18 18 19 20 20 21 21 22 23 23 23 24 25 25 26 26 27 27 27 28 29 30 30 30 30 31
19 18 16 16 16 16 16 16 16 16 17 17 17 17 17 18 18 19 19 20 21 22 22 22 24 25 25 25 25 25 26 27 27 27 28 29 29 30 31 31 32 32 32
19 19 18 18 18 18 18 18 18 18 18 18 18 18 18 19 20 20 21 22 23 23 23 24 24 25 26 26 26 27 27 27 28 28 29 30 31 31 31 32 32 32 32
21 20 20 20 20 20 20 20 20 19 19 19 19 19 20 20 21 22 22 23 24 24 25 25 26 26 27 27 27 28 28 29 30 30 30 30 31 31 31 31 31 32 32
23 22 22 22 22 22 22 22 21 21 20 20 20 20 21 21 22 23 23 24 25 25 26 26 27 27 28 28 28 29 29 29 30 30 30 30 31 31 31 31 32 32 31
24 24 24 24 23 23 23 22 22 22 21 21 21 22 22 23 23 24 24 24 25 26 26 27 27 27 28 28 29 29 30 30 30 31 31 31 31 31 31 31 31 31 32
Wind_Direction
127 135 143 146 147 140 134 145 150 161 162 135 141 128 122 47 77 198 210 200 226 238 255 269 267 271 284 294 292 293 295 291 292 296 296 299 297 285 284 282 280 278 276
125 139 136 155 163 152 146 144 158 161 134 172 212 217 216 249 247 261 258 266 263 263 267 268 270 274 280 287 289 287 289 289 289 290 291 292 293 293 289 284 280 276 273
129 141 145 164 172 177 177 180 180 185 224 247 250 240 239 255 254 261 263 266 270 274 273 275 277 275 278 279 282 285 286 288 287 287 287 285 286 286 286 285 282 279 275
100 148 180 195 192 198 201 209 218 220 238 258 266 259 254 258 264 269 271 270 269 271 274 275 278 279 279 279 279 282 284 285 283 283 283 281 279 279 280 281 280 282 281
75 37 217 194 197 207 211 223 236 247 257 267 273 272 269 268 267 272 274 274 274 273 272 273 279 282 284 288 286 284 285 285 282 281 279 278 277 276 277 278 279 279 279
40 25 273 215 208 213 213 224 237 256 266 266 266 270 275 280 276 271 274 275 276 275 273 274 277 280 286 288 288 286 286 284 282 280 277 276 275 275 277 277 278 277 277
27 13 357 305 270 248 248 251 261 265 269 268 268 274 277 283 280 274 273 275 274 275 278 277 279 280 284 288 288 289 289 285 283 282 280 277 276 274 275 277 277 277 276
20 15 0 334 305 276 269 269 272 270 274 271 272 275 279 281 284 280 279 281 279 278 280 281 280 282 284 287 289 289 292 290 287 287 286 283 280 279 278 277 276 276 277
15 359 347 321 310 296 287 286 285 275 275 275 276 276 282 284 285 282 284 287 283 280 279 283 284 284 286 287 289 291 291 291 288 287 287 285 282 281 281 278 277 276 275
4 353 340 327 321 312 303 297 298 289 282 281 281 279 281 284 286 287 288 289 289 286 281 279 281 282 286 286 287 290 291 291 288 286 285 285 284 283 281 280 280 279 277
354 344 336 323 312 304 300 295 295 292 288 285 282 281 281 284 287 290 291 292 291 289 288 285 285 284 285 287 292 290 290 291 290 285 286 286 285 284 283 282 280 280 278
356 351 340 328 319 311 302 294 294 292 290 286 282 281 282 283 284 287 290 290 291 292 291 287 287 289 288 289 291 293 292 292 290 287 289 288 288 287 285 283 281 280 279
358 352 345 332 322 315 306 298 296 294 294 289 285 282 283 284 283 286 288 290 292 293 292 289 289 291 291 292 292 293 293 292 292 290 288 289 288 287 285 284 282 280 279
353 348 341 332 321 312 307 302 298 295 296 295 290 287 286 287 286 286 290 290 292 295 294 291 291 292 292 292 292 293 294 293 293 292 290 290 290 288 286 283 282 282 281
346 340 336 331 320 310 310 309 301 297 294 295 293 290 286 287 290 290 290 290 292 296 296 294 293 294 294 294 295 294 293 293 293 293 291 290 289 289 288 286 285 283 282
341 337 333 329 326 316 311 312 310 307 300 298 295 292 292 290 291 294 293 293 293 293 295 295 296 297 296 294 294 294 293 295 295 294 292 290 289 290 289 287 286 285 283
340 337 331 329 326 319 314 311 311 308 303 298 295 294 295 295 294 293 294 293 294 293 294 296 297 298 296 296 295 295 295 295 296 297 295 293 293 293 291 289 287 287 287
338 334 330 326 324 321 316 313 310 308 306 302 298 295 295 295 295 295 295 294 295 295 295 296 296 296 296 296 295 295 296 295 296 296 295 294 293 292 291 290 291 290 289
336 333 329 326 322 319 316 313 311 309 307 303 301 299 297 296 296 296 296 298 299 299 298 298 298 298 298 297 297 297 296 296 295 296 295 295 294 292 291 291 290 290 290
336 334 330 325 321 317 314 313 311 309 307 303 302 300 299 298 297 298 298 300 300 301 301 300 300 300 300 299 297 297 297 297 296 295 295 294 294 294 293 293 292 292 291
337 334 331 326 323 320 317 314 312 310 307 305 303 301 301 301 299 298 298 299 300 300 300 299 299 299 298 298 297 297 296 296 296 296 295 295 295 295 295 294 294 293 292
335 332 330 329 324 320 317 314 311 308 307 305 303 301 301 301 300 298 297 297 297 299 299 299 299 298 298 297 298 298 298 297 297 296 295 294 294 295 295 294 293 292 291
330 329 326 324 322 318 315 313 311 307 306 306 304 303 303 303 302 299 297 296 297 300 300 301 301 300 299 299 299 299 300 300 299 298 296 296 296 296 295 295 295 294 293
325 325 324 321 318 316 314 312 311 309 306 305 304 304 304 305 305 302 300 300 301 302 302 302 301 301 301 300 301 301 301 301 300 299 298 298 298 298 298 297 296 295 295
322 322 321 320 317 314 311 311 310 308 306 305 305 304 304 305 305 304 303 303 302 302 302 302 302 302 302 301 301 301 301 301 301 300 300 300 300 299 299 298 296 296 296
319 319 319 318 315 313 311 308 308 306 305 304 303 303 303 304 304 304 304 304 303 303 303 303 303 303 303 302 301 301 301 301 301 301 301 300 300 300 300 299 298 297 297
Height
5887 5888 5888 5889 5889 5889 5890 5890 5891 5891 5892 5892 5892 5892 5893 5893 5893 5893 5894 5894 5894 5894 5894 5894 5894 5894 5894 5894 5894 5894 5894 5894 5893 5893 5893 5893 5892 5892 5892 5892 5892 5892 5892
5887 5888 5888 5889 5889 5890 5890 5890 5891 5891 5892 5892 5892 5892 5893 5893 5893 5893 5893 5893 5894 5894 5894 5894 5894 5894 5893 5893 5893 5893 5893 5893 5892 5892 5892 5891 5891 5891 5891 5890 5890 5890 5890
5888 5888 5889 5889 5889 5890 5890 5890 5891 5891 5892 5892 5892 5892 5892 5892 5892 5893 5893 5893 5893 5893 5893 5893 5893 5893 5892 5892 5892 5892 5892 5891 5891 5891 5890 5890 5890 5889 5889 5889 5888 5888 5888
5888 5888 5888 5889 5889 5889 5890 5890 5891 5891 5891 5891 5892 5892 5892 5892 5892 5892 5892 5892 5892 5892 5892 5892 5892 5892 5891 5891 5891 5890 5890 5889 5889 5889 5888 5888 5888 5887 5887 5887 5886 5886 5885
5888 5888 5888 5888 5889 5889 5889 5890 5890 5891 5891 5891 5891 5891 5891 5891 5891 5891 5890 5890 5890 5891 5891 5891 5890 5890 5890 5889 5889 5888 5888 5887 5887 5886 5886 5885 5885 5885 5884 5884 5884 5883 5883
5888 5888 5888 5888 5888 5889 5889 5889 5890 5890 5890 5890 5890 5890 5890 5890 5889 5889 5889 5889 5889 5888 5889 5888 5888 5888 5888 5887 5886 5886 5885 5885 5884 5883 5883 5882 5882 5882 5881 5881 5880 5880 5880
5888 5888 5888 5888 5888 5888 5889 5889 5889 5889 5889 5889 5889 5889 5888 5888 5888 5887 5887 5887 5887 5886 5886 5886 5886 5885 5885 5885 5884 5883 5882 5881 5880 5880 5879 5879 5878 5878 5877 5877 5876 5876 5875
5889 5888 5888 5888 5888 5888 5888 5888 5888 5888 5887 5887 5887 5887 5887 5887 5886 5886 5885 5885 5885 5884 5884 5883 5883 5883 5882 5882 5881 5880 5879 5878 5877 5876 5875 5875 5874 5873 5873 5872 5872 5871 5871
5889 5889 5888 5888 5887 5887 5887 5887 5886 5886 5886 5886 5886 5886 5886 5885 5885 5884 5883 5883 5882 5881 5881 5880 5880 5879 5879 5878 5877 5877 5876 5874 5873 5872 5871 5870 5870 5869 5868 5868 5867 5867 5866
5889 5889 5888 5887 5887 5886 5886 5885 5885 5885 5885 5885 5884 5884 5884 5883 5883 5882 5882 5881 5880 5879 5878 5878 5877 5876 5875 5875 5873 5873 5872 5871 5869 5868 5867 5866 5865 5864 5863 5863 5862 5861 5861
5889 5888 5887 5886 5886 5885 5884 5884 5884 5883 5883 5883 5882 5882 5881 5881 5880 5880 5879 5879 5878 5877 5876 5875 5874 5873 5872 5871 5870 5868 5867 5866 5865 5863 5862 5861 5860 5859 5858 5857 5857 5856 5855
5888 5887 5886 5885 5884 5883 5883 5882 5882 5881 5881 5880 5880 5879 5879 5879 5878 5877 5877 5876 5875 5874 5873 5871 5870 5869 5868 5867 5866 5864 5863 5862 5860 5859 5858 5856 5855 5854 5853 5852 5851 5850 5849
5887 5886 5885 5884 5883 5882 5881 5880 5880 5879 5878 5877 5877 5877 5876 5876 5875 5875 5874 5873 5872 5871 5869 5868 5867 5866 5864 5863 5862 5860 5859 5857 5856 5854 5853 5851 5850 5849 5848 5847 5845 5844 5843
5887 5885 5884 5882 5881 5880 5879 5878 5878 5877 5876 5875 5875 5874 5873 5873 5872 5871 5871 5870 5869 5867 5866 5865 5863 5862 5860 5859 5857 5856 5854 5852 5850 5849 5847 5846 5844 5843 5841 5840 5839 5838 5836
5886 5884 5883 5881 5879 5878 5877 5876 5875 5874 5874 5873 5872 5871 5870 5870 5869 5868 5867 5866 5865 5864 5862 5861 5859 5858 5856 5854 5852 5851 5849 5847 5845 5843 5842 5840 5839 5837 5835 5834 5832 5831 5830
5885 5883 5881 5880 5878 5876 5875 5874 5873 5872 5871 5870 5869 5868 5868 5867 5866 5865 5863 5862 5861 5860 5858 5857 5855 5853 5851 5850 5848 5846 5844 5842 5840 5838 5836 5834 5833 5831 5829 5827 5826 5824 5823
5884 5882 5879 5878 5876 5874 5873 5872 5871 5870 5869 5867 5866 5865 5864 5863 5862 5861 5859 5858 5857 5855 5854 5852 5850 5849 5847 5845 5843 5841 5839 5837 5835 5833 5831 5829 5827 5825 5823 5821 5819 5818 5816
5882 5880 5878 5876 5874 5872 5871 5870 5869 5867 5866 5865 5863 5862 5861 5859 5858 5857 5856 5854 5852 5851 5849 5847 5846 5844 5842 5840 5838 5836 5834 5832 5829 5827 5825 5823 5821 5819 5817 5815 5813 5811 5809
5881 5878 5876 5874 5872 5870 5869 5867 5866 5864 5863 5861 5860 5859 5857 5856 5854 5853 5851 5850 5848 5846 5844 5843 5841 5839 5836 5834 5832 5830 5828 5826 5823 5821 5819 5816 5814 5812 5810 5808 5806 5804 5801
5879 5876 5874 5871 5870 5868 5866 5865 5863 5861 5859 5858 5856 5855 5853 5852 5850 5849 5847 5845 5844 5842 5840 5838 5835 5833 5831 5829 5827 5824 5822 5819 5817 5814 5812 5809 5807 5805 5803 5800 5798 5796 5793
5876 5874 5872 5869 5867 5865 5863 5861 5860 5858 5856 5854 5853 5851 5849 5848 5846 5844 5842 5841 5839 5837 5835 5832 5830 5828 5825 5823 5820 5818 5815 5813 5810 5807 5805 5802 5800 5797 5795 5792 5790 5787 5785
5875 5872 5869 5867 5865 5863 5860 5858 5856 5854 5852 5850 5848 5847 5845 5843 5841 5839 5838 5836 5834 5832 5829 5827 5824 5822 5819 5817 5814 5811 5808 5806 5803 5800 5797 5795 5792 5789 5786 5784 5781 5778 5776
5872 5870 5867 5864 5862 5859 5857 5855 5853 5850 5848 5846 5844 5842 5840 5838 5836 5834 5832 5830 5828 5826 5823 5821 5818 5815 5812 5810 5807 5804 5801 5798 5795 5792 5789 5786 5784 5781 5778 5775 5772 5769 5767
5869 5866 5863 5861 5858 5856 5853 5851 5849 5846 5844 5842 5840 5838 5836 5833 5831 5829 5826 5824 5822 5819 5817 5814 5811 5808 5805 5803 5800 5797 5794 5791 5788 5784 5781 5778 5775 5772 5769 5766 5763 5760 5757
5866 5863 5860 5857 5854 5851 5849 5846 5844 5841 5839 5837 5835 5833 5830 5828 5826 5823 5821 5818 5815 5813 5810 5807 5804 5801 5798 5795 5792 5789 5786 5783 5780 5777 5773 5770 5767 5764 5761 5758 5754 5752 5749
5862 5859 5855 5852 5849 5846 5844 5841 5838 5836 5834 5832 5830 5827 5825 5822 5820 5817 5815 5812 5809 5806 5803 5800 5797 5794 5791 5788 5785 5782 5779 5776 5772 5769 5765 5762 5759 5756 5752 5749 5746 5743 5740